星链-34292 (STARLINK-34292)

导读 | 星芒AI

STARLINK-34292 是 SpaceX Starlink 卫星互联网项目中的一颗低轨卫星,属于第6批(v1.5)部署的星链卫星之一。该卫星于2022年12月发射,运行在约550公里高的近地轨道,旨在为全球提供高速互联网服务。它采用先进的相控阵天线和激光通信技术,支持高带宽、低延迟的网络连接。作为星链星座的一部分,STARLINK-34292 有助于扩大覆盖范围,提升网络性能,并支持偏远地区的互联网接入。

基本信息
目录编号:
64390
目录名称:
STARLINK-34292
国际标识:
2025-127W
轨道中心:
EARTH
卫星名称:
星链-34292
卫星全名:
星链-34292 (STARLINK-34292)
卫星状态:
在轨 (已飞行149 天)
发射日期:
2025-06-13 UTC
国别 :
美国 (US)
星等 :
--
轨道信息
数据来源 国际轨道数据
星历时间: 2025-11-08T22:02:34+0800
21小时前
查看轨道信息
半长轴: 6861.129km
偏心率: 0.0001152
轨道倾角: 43.001°
近地点辐角 288.371°
升交点赤经 143.892°
平近点角 71.701°
近地点: 482.203km
远地点: 483.785km
周期: 94.266分钟
每日圈数: 15.275994
详细信息
固有亮度:
5
最大亮度:
2.5
卫星平台:
Starlink V1.0
覆盖范围:
全球
运营商:
太空探索技术公司
运营商所在国:
美国
制造商(研发单位):
太空探索技术公司
制造商所在国:
美国
使用方式:
暂无
卫星简介
Starlink 计划是 SpaceX 推出的全球卫星互联网项目,通过发射低轨道卫星,为全球尤其是偏远地区提供高速、低延迟的互联网服务。自 2019 年起,Starlink 已部署数千颗卫星,旨在缩小全球数字鸿沟,推动互联网普及。该项目还为军事、航空等行业提供通信支持,带来广泛经济效益。
2D轨道图
3D轨道图
轨道高度分析图
轨道倾角分析图
轨道综合分析图
查看轨道综合分析图